Flock 4g-1

operational
NORAD ID: 62666 Int'l Des: 2025-009 Owner: PLAN Country: US Constellation: planet
LEOCIRCULARRETROGRADESSO

About Flock 4g-1

Description loading...

Live Position

Loading 3D Globe...

Upcoming Passes

Altitude History

Altitude vs Time

uPlot chart will show altitude changes over time

Two-Line Element Set

1 62666U 25009BK 25315.18709109 .00015707 00000-0 64848-3 0 9996
2 62666 97.4219 33.7248 0004821 25.7013 334.4463 15.24101532 45640
Epoch: Nov 11, 2025 • Age: 16 hours

Current Status

Altitude 494.4 km
Velocity 7.62 km/s
Sub-Earth Point 32.09°N, 32.67°E
Launch Date Jan 14, 2025
Age 0.8 years
Type earth observation

Technical Details

Classification Payload
Mass 5.70 kg
Dry Mass 5.70 kg
Total Mass 5.70 kg
Length 0.30 m
Diameter 0.10 m
Span 0.30 m
Shape Box+2 pan
Manufacturer PLAN
Bus Type Cubesat 3U
Phase Status In Orbit
Owner/State PLAN/US

Large Constellations

Loading constellations...